Location: G�ppingen
(48.7000°N, 9.6670°E)
Time: 03:10:50
(UTC+02:00)

ELECTRON R/B - Visible Passes

Search period start: 21 May 2018 00:00
Search period end: 31 May 2018 00:00
Orbit: 285 x 480 km, 82.9° (Epoch: 20 May)

Date Brightness Start Highest point End Pass type
(mag) Time Alt. Az. Time Alt. Az. Time Alt. Az.
21 May 7.5 23:04:24 10° WNW 23:05:07 11° W 23:05:50 10° WSW visible
22 May 4.7 22:06:30 10° NNW 22:08:56 63° W 22:11:20 10° S visible
23 May 7.4 22:43:55 10° WNW 22:45:04 12° W 22:46:13 10° WSW visible
24 May 4.4 21:46:14 10° NNW 21:48:41 78° W 21:51:08 10° S visible
25 May 7.3 22:23:14 10° NW 22:24:42 15° W 22:26:10 10° SW visible
27 May 7.2 22:02:16 10° NW 22:04:00 17° W 22:05:45 10° SW visible
